GW1031 Weather Reports


Display with metric or nautical units.
time (UTC)temp
F
wind
direction
speed
MPH
gust
MPH
rain 1hr
in
rain 24hr
in
rain mn
in
humidity
%
barometer
mb
20260503225039 70 53 0.0 0.0 0.00 0.00 0.00 28 1015.1
20260503224537 71 146 0.0 1.0 0.00 0.00 0.00 24 1015.6
20260503224035 72 177 1.0 1.0 0.00 0.00 0.00 22 1015.7
20260503223533 70 283 0.0 1.0 0.00 0.00 0.00 27 1015.7
20260503223028 70 126 0.0 0.0 0.00 0.00 0.00 24 1015.7
20260503222526 70 196 0.0 1.0 0.00 0.00 0.00 24 1015.4
20260503222024 71 200 1.0 1.0 0.00 0.00 0.00 26 1015.9
20260503221522 73 198 1.0 2.0 0.00 0.00 0.00 23 1015.8
20260503221019 71 268 0.0 0.0 0.00 0.00 0.00 27 1015.7
20260503220515 71 67 0.0 1.0 0.00 0.00 0.00 23 1016.4
20260503220012 73 165 2.0 3.0 0.00 0.00 0.00 21 1016.4
20260503215509 74 0 2.0 2.0 0.00 0.00 0.00 21 1016.3
20260503215006 73 279 1.0 2.0 0.00 0.00 0.00 27 1016.4
20260503214504 73 111 1.0 2.0 0.00 0.00 0.00 25 1016.3
20260503214001 73 233 0.0 0.0 0.00 0.00 0.00 22 1016.7
20260503213459 73 271 0.0 1.0 0.00 0.00 0.00 22 1016.9
20260503212955 71 163 1.0 2.0 0.00 0.00 0.00 26 1016.8
20260503212452 69 95 1.0 1.0 0.00 0.00 0.00 29 1016.9
20260503211949 66 175 1.0 1.0 0.00 0.00 0.00 27 1017.0
20260503211446 67 59 3.0 5.0 0.00 0.00 0.00 25 1017.3
20260503210937 66 77 1.0 2.0 0.00 0.00 0.00 26 1017.3
20260503210433 67 81 2.0 3.0 0.00 0.00 0.00 26 1017.1
20260503205928 69 107 1.0 2.0 0.00 0.00 0.00 28 1017.4
20260503205426 66 140 0.0 0.0 0.00 0.00 0.00 29 1017.5
20260503204921 66 5 1.0 2.0 0.00 0.00 0.00 27 1017.4
20260503204419 65 158 0.0 0.0 0.00 0.00 0.00 26 1017.8
20260503203916 65 83 0.0 0.0 0.00 0.00 0.00 31 1017.8
20260503203413 65 69 0.0 0.0 0.00 0.00 0.00 31 1017.9
20260503202910 65 87 0.0 0.0 0.00 0.00 0.00 29 1018.0
20260503202409 66 114 2.0 2.0 0.00 0.00 0.00 28 1018.0
20260503201907 66 183 0.0 0.0 0.00 0.00 0.00 31 1018.4
20260503201403 66 109 1.0 1.0 0.00 0.00 0.00 27 1018.4
20260503200901 67 85 1.0 2.0 0.00 0.00 0.00 29 1018.5
20260503200356 68 267 1.0 2.0 0.00 0.00 0.00 26 1018.7
20260503195854 68 112 1.0 2.0 0.00 0.00 0.00 30 1018.7
20260503195350 69 104 2.0 2.0 0.00 0.00 0.00 24 1018.7
20260503194848 67 135 0.0 0.0 0.00 0.00 0.00 32 1018.7
20260503194343 66 137 1.0 1.0 0.00 0.00 0.00 27 1018.6
20260503193840 66 155 0.0 1.0 0.00 0.00 0.00 27 1019.0
20260503193336 66 209 0.0 0.0 0.00 0.00 0.00 30 1019.1
20260503192832 67 130 1.0 1.0 0.00 0.00 0.00 27 1019.2
20260503192327 66 119 0.0 0.0 0.00 0.00 0.00 34 1018.8
20260503191824 66 119 2.0 2.0 0.00 0.00 0.00 27 1019.1
20260503191321 66 71 0.0 0.0 0.00 0.00 0.00 26 1019.0
20260503190817 66 72 0.0 1.0 0.00 0.00 0.00 27 1019.2
20260503190314 66 156 0.0 0.0 0.00 0.00 0.00 28 1019.2
20260503185812 69 116 0.0 1.0 0.00 0.00 0.00 30 1019.7
20260503185307 68 140 2.0 2.0 0.00 0.00 0.00 25 1019.5
20260503184802 65 94 2.0 2.0 0.00 0.00 0.00 28 1019.9
20260503184259 66 101 1.0 2.0 0.00 0.00 0.00 27 1019.9
20260503183754 66 81 2.0 2.0 0.00 0.00 0.00 31 1020.1
20260503183252 68 238 1.0 2.0 0.00 0.00 0.00 28 1019.8
20260503182749 65 147 1.0 1.0 0.00 0.00 0.00 27 1020.2
20260503182248 66 25 0.0 2.0 0.00 0.00 0.00 29 1020.2
20260503181744 66 157 1.0 1.0 0.00 0.00 0.00 29 1020.8
20260503181242 65 184 0.0 0.0 0.00 0.00 0.00 29 1020.6
20260503180738 64 114 0.0 0.0 0.00 0.00 0.00 33 1020.9
20260503180236 66 14 1.0 1.0 0.00 0.00 0.00 29 1020.6
20260503175732 67 213 3.0 3.0 0.00 0.00 0.00 27 1020.8
20260503175231 67 236 2.0 2.0 0.00 0.00 0.00 26 1020.9
20260503174726 66 137 0.0 1.0 0.00 0.00 0.00 30 1020.9
20260503174224 65 135 0.0 0.0 0.00 0.00 0.00 30 1020.9
20260503173719 64 312 1.0 1.0 0.00 0.00 0.00 30 1020.9
20260503173215 65 269 1.0 3.0 0.00 0.00 0.00 29 1021.3
20260503172712 64 200 2.0 2.0 0.00 0.00 0.00 29 1021.4
20260503172209 64 8 0.0 1.0 0.00 0.00 0.00 30 1021.4
20260503171705 65 231 4.0 5.0 0.00 0.00 0.00 29 1021.5
20260503171203 64 206 1.0 1.0 0.00 0.00 0.00 31 1021.7
20260503170700 64 72 1.0 2.0 0.00 0.00 0.00 31 1021.7
20260503170157 64 118 1.0 1.0 0.00 0.00 0.00 30 1021.7
20260503160118 58 169 0.0 0.0 0.00 0.00 0.00 31 1022.1
20260503150548 52 90 0.0 0.0 0.00 0.00 0.00 46 1022.9
20260503130938 34 79 0.0 0.0 0.00 0.00 0.00 82 1023.7
20260503130436 33 142 0.0 0.0 0.00 0.00 0.00 84 1023.7
20260503110326 31 180 0.0 0.0 0.00 0.00 0.00 86 1023.5
20260503100252 32 153 0.0 0.0 0.00 0.00 0.00 88 1023.2
20260503090212 33 144 0.0 0.0 0.00 0.00 0.00 87 1023.0
20260503081139 35 202 0.0 0.0 0.00 0.00 0.00 80 1023.0
20260503080635 34 133 0.0 0.0 0.00 0.00 0.00 84 1023.0
20260503080132 34 170 0.0 0.0 0.00 0.00 0.00 83 1023.0
20260503072609 35 178 0.0 0.0 0.00 0.00 0.00 80 1023.4
20260503072106 35 184 0.0 0.0 0.00 0.00 0.00 81 1023.4
20260503071603 36 142 0.0 0.0 0.00 0.00 0.00 81 1023.1
20260503071059 35 139 0.0 0.0 0.00 0.00 0.00 81 1023.5
20260503070556 36 170 0.0 0.0 0.00 0.00 0.00 77 1023.2
20260503055009 37 139 0.0 0.0 0.00 0.00 0.00 73 1022.5
20260503054504 37 139 0.0 0.0 0.00 0.00 0.00 71 1022.5
20260503054003 38 139 0.0 0.0 0.00 0.00 0.00 71 1022.6
20260503053500 38 139 0.0 0.0 0.00 0.00 0.00 70 1022.6
20260503052956 39 137 0.0 0.0 0.00 0.00 0.00 69 1022.5
20260503052454 38 155 0.0 0.0 0.00 0.00 0.00 65 1022.4
20260503051950 38 158 0.0 0.0 0.00 0.00 0.00 64 1022.6
20260503051446 39 158 0.0 0.0 0.00 0.00 0.00 65 1022.8
20260503050943 39 158 0.0 0.0 0.00 0.00 0.00 69 1022.6
20260503050439 39 124 0.0 0.0 0.00 0.00 0.00 73 1022.5
20260503045937 39 123 0.0 0.0 0.00 0.00 0.00 72 1022.8
20260503045435 39 144 0.0 0.0 0.00 0.00 0.00 67 1022.6
20260503044931 39 144 0.0 0.0 0.00 0.00 0.00 65 1022.6
20260503044428 40 144 0.0 0.0 0.00 0.00 0.00 64 1022.5
20260503043926 40 143 0.0 0.0 0.00 0.00 0.00 65 1022.5
20260503043422 41 141 0.0 0.0 0.00 0.00 0.00 66 1022.6
20260503042918 42 141 0.0 0.0 0.00 0.00 0.00 67 1022.5
20260503042415 42 193 0.0 0.0 0.00 0.00 0.00 60 1022.3
20260503041912 41 140 0.0 0.0 0.00 0.00 0.00 61 1022.4
20260503041409 41 157 0.0 0.0 0.00 0.00 0.00 65 1022.3
20260503040906 42 138 0.0 0.0 0.00 0.00 0.00 66 1022.1
20260503040403 42 138 0.0 0.0 0.00 0.00 0.00 65 1022.0
20260503035900 43 179 0.0 0.0 0.00 0.00 0.00 67 1022.1
20260503035357 44 179 0.0 0.0 0.00 0.00 0.00 54 1021.8
20260503034854 44 179 0.0 0.0 0.00 0.00 0.00 53 1021.9
20260503034352 43 189 0.0 0.0 0.00 0.00 0.00 53 1021.8
20260503033849 44 189 0.0 0.0 0.00 0.00 0.00 53 1021.9
20260503033346 44 86 0.0 0.0 0.00 0.00 0.00 61 1021.4
20260503032844 45 138 0.0 0.0 0.00 0.00 0.00 60 1021.7
20260503032343 45 124 0.0 0.0 0.00 0.00 0.00 60 1021.4
20260503031840 45 185 0.0 0.0 0.00 0.00 0.00 64 1021.3
20260503031337 45 139 0.0 0.0 0.00 0.00 0.00 66 1021.2
20260503030834 45 148 0.0 0.0 0.00 0.00 0.00 59 1021.0
20260503030330 46 183 0.0 0.0 0.00 0.00 0.00 56 1021.0
20260503025827 46 188 0.0 0.0 0.00 0.00 0.00 53 1020.9
20260503025325 46 158 0.0 0.0 0.00 0.00 0.00 61 1020.7
20260503024821 46 117 0.0 0.0 0.00 0.00 0.00 65 1020.8
20260503024318 47 138 0.0 0.0 0.00 0.00 0.00 56 1020.7
20260503023815 48 116 0.0 0.0 0.00 0.00 0.00 54 1020.3
20260503023312 49 145 0.0 0.0 0.00 0.00 0.00 48 1020.4
20260503022809 50 149 0.0 0.0 0.00 0.00 0.00 48 1020.3
20260503022309 50 136 0.0 0.0 0.00 0.00 0.00 51 1020.3
20260503021805 51 119 0.0 0.0 0.00 0.00 0.00 48 1020.3
20260503021302 53 132 0.0 0.0 0.00 0.00 0.00 49 1020.1
20260503020759 54 171 0.0 0.0 0.00 0.00 0.00 35 1019.9
20260503020257 55 190 0.0 0.0 0.00 0.00 0.00 35 1019.9
20260503015752 55 213 0.0 0.0 0.00 0.00 0.00 34 1019.7
20260503015250 56 197 0.0 0.0 0.00 0.00 0.00 32 1019.8
20260503014745 57 191 0.0 0.0 0.00 0.00 0.00 31 1019.8
20260503014244 57 183 0.0 0.0 0.00 0.00 0.00 30 1019.7
20260503013741 57 211 0.0 0.0 0.00 0.00 0.00 28 1019.8
20260503013238 57 213 0.0 0.0 0.00 0.00 0.00 29 1019.5
20260503012735 57 203 0.0 0.0 0.00 0.00 0.00 28 1019.8
20260503012232 58 203 0.0 0.0 0.00 0.00 0.00 28 1019.6
20260503011729 59 202 0.0 0.0 0.00 0.00 0.00 28 1019.6
20260503011226 59 213 0.0 0.0 0.00 0.00 0.00 26 1019.6
20260503010722 61 208 0.0 0.0 0.00 0.00 0.00 27 1019.3
20260503010219 62 207 0.0 0.0 0.00 0.00 0.00 25 1019.6
20260503005717 63 241 0.0 0.0 0.00 0.00 0.00 24 1019.7
20260503005214 64 196 0.0 1.0 0.00 0.00 0.00 24 1019.7
20260503004710 64 245 1.0 1.0 0.00 0.00 0.00 23 1019.5
20260503004209 65 157 1.0 2.0 0.00 0.00 0.00 21 1019.8
20260503003705 66 218 0.0 1.0 0.00 0.00 0.00 22 1019.6
20260503003202 67 201 0.0 1.0 0.00 0.00 0.00 21 1019.7
20260503002659 68 255 3.0 3.0 0.00 0.00 0.00 20 1019.6
20260503002155 69 338 5.0 6.0 0.00 0.00 0.00 20 1019.6
20260503001652 69 188 1.0 2.0 0.00 0.00 0.00 19 1019.7
20260503001149 69 212 0.0 0.0 0.00 0.00 0.00 23 1019.8
20260503000646 70 204 3.0 3.0 0.00 0.00 0.00 19 1019.8
20260503000143 69 253 0.0 0.0 0.00 0.00 0.00 20 1019.5
20260502235640 69 229 1.0 2.0 0.00 0.00 0.00 20 1019.8
20260502235138 70 316 0.0 0.0 0.00 0.00 0.00 19 1019.8
20260502234634 70 209 1.0 1.0 0.00 0.00 0.00 21 1019.7
20260502234131 69 204 1.0 2.0 0.00 0.00 0.00 20 1019.9
20260502233627 67 41 0.0 1.0 0.00 0.00 0.00 21 1019.7
20260502233124 68 42 1.0 2.0 0.00 0.00 0.00 21 1019.8
20260502232620 71 234 2.0 2.0 0.00 0.00 0.00 19 1019.9
20260502232118 71 276 1.0 1.0 0.00 0.00 0.00 19 1019.7
20260502231614 72 149 1.0 2.0 0.00 0.00 0.00 19 1019.9
20260502231112 72 138 1.0 1.0 0.00 0.00 0.00 19 1019.8
20260502230610 70 137 1.0 2.0 0.00 0.00 0.00 22 1019.9
20260502230108 72 96 1.0 2.0 0.00 0.00 0.00 21 1019.8
20260502225603 72 347 0.0 1.0 0.00 0.00 0.00 21 1019.8